Lapse_Rate
7.2 8.2 7.9 7.7 7.2 6.6 6.9 6.8 6.9 7.3 7.1 6.6 6.5 6.6 6.4 6.8 8.0 7.9 8.4 8.8 9.0 8.9 8.8 8.0 8.8 8.3 5.3 3.3 3.4 4.8 3.8 4.0 4.8 7.1 7.8 7.5 7.9 9.0 7.6 6.1 6.4 7.0 6.6
6.9 6.8 6.9 6.8 6.8 6.6 6.4 6.8 7.0 6.7 6.8 6.6 6.6 6.8 7.0 7.6 8.7 8.9 9.0 9.0 8.8 8.8 9.0 9.0 8.4 8.3 6.1 4.5 5.1 4.6 3.7 3.9 6.0 7.1 7.8 6.8 6.6 7.6 7.5 7.0 7.9 7.9 8.8
7.7 6.2 6.1 5.6 5.4 5.3 5.5 5.7 6.3 6.3 6.6 7.3 7.3 6.9 7.1 8.9 8.6 8.3 8.2 8.9 9.1 9.1 8.2 7.6 7.9 8.1 6.9 5.8 5.5 3.3 3.6 3.9 8.1 6.8 7.6 8.0 7.0 8.7 8.6 8.8 8.9 8.0 9.1
7.4 6.3 5.8 5.5 5.1 5.2 5.1 5.3 5.6 6.0 6.4 7.3 7.0 7.1 7.0 7.5 8.1 8.5 7.4 7.9 8.7 8.2 8.6 8.4 7.8 6.9 6.2 5.8 4.8 2.8 2.9 4.3 8.1 8.7 8.0 8.0 7.3 7.9 9.4 9.0 9.3 9.9 9.4
6.3 5.8 5.7 5.9 6.3 5.8 5.9 5.8 6.3 6.2 6.7 7.0 7.9 6.7 6.5 7.1 7.3 3.3 4.6 5.7 7.6 8.3 8.7 7.3 6.3 3.8 2.9 4.2 3.5 2.9 3.9 4.4 9.0 9.1 8.8 7.7 8.3 8.7 9.0 9.1 9.4 9.5 8.3
6.8 4.9 5.6 5.8 6.2 5.4 5.5 5.9 6.2 6.8 7.0 6.2 6.5 6.6 4.1 6.1 -3.2 -2.4 0.4 8.8 6.2 5.4 5.0 4.8 4.7 4.3 3.2 1.9 3.3 3.6 4.4 4.2 8.7 8.6 8.7 8.9 8.1 8.9 9.4 9.3 9.4 8.9 8.6
5.0 5.1 5.6 5.4 5.4 5.2 5.5 5.8 7.6 8.7 6.7 6.5 5.0 3.9 3.7 3.0 -3.8 -2.7 -0.7 5.8 7.1 6.0 5.9 6.2 5.4 4.6 3.6 3.4 2.4 3.1 3.2 3.9 5.3 9.1 8.8 9.0 8.3 9.0 8.4 8.2 8.7 9.0 8.4
4.7 4.9 5.1 5.1 5.3 5.3 5.0 5.5 7.6 8.7 8.4 5.1 4.0 3.9 4.0 1.3 -4.6 -3.7 -0.9 7.5 8.7 6.6 5.8 5.6 6.1 4.7 4.1 3.8 3.5 3.7 3.9 5.0 7.7 9.8 9.5 9.4 9.4 9.3 6.9 7.5 5.7 5.3 7.9
6.3 5.9 4.8 4.9 5.4 5.0 5.5 6.9 8.1 7.8 5.2 4.2 4.6 4.3 3.7 1.2 -5.4 -4.5 1.2 8.6 8.0 6.5 5.5 4.8 6.7 6.0 1.3 2.6 5.6 3.6 3.2 6.9 2.8 3.1 4.3 5.6 7.1 7.4 8.7 9.7 8.4 8.5 8.4
7.8 8.8 8.4 7.5 6.0 6.8 8.0 7.1 7.0 4.8 5.8 7.8 5.3 3.3 -0.3 2.2 -5.2 -4.6 -0.9 9.5 7.8 6.7 5.1 5.5 0.3 4.2 0.9 2.4 6.5 6.0 4.4 3.9 3.9 6.0 6.4 4.5 6.1 6.0 6.5 9.0 9.4 8.8 8.8
8.8 5.9 6.7 6.9 8.0 7.5 6.3 5.9 4.5 6.0 5.6 4.7 2.6 2.4 2.6 0.4 -0.2 -3.1 -2.4 8.0 8.3 8.8 6.5 5.0 4.7 -0.5 0.4 0.9 4.9 6.3 3.1 2.0 3.4 7.6 8.7 9.0 8.3 7.9 9.2 9.4 8.8 9.1 9.0
7.2 5.2 6.4 4.3 6.9 5.7 4.2 5.2 6.3 5.8 4.1 3.1 3.1 3.3 4.3 3.5 -2.9 -2.6 -2.7 -2.1 0.0 6.8 5.8 4.9 4.5 -1.2 -1.1 0.1 3.4 -0.2 0.3 3.3 6.2 8.7 9.5 9.5 9.6 9.4 9.8 9.9 9.4 9.5 8.6
6.9 6.5 6.6 4.4 4.5 6.3 6.1 6.1 6.2 8.1 7.6 5.6 4.1 4.6 8.8 8.1 7.0 -1.3 -1.1 -1.1 0.1 5.5 5.8 1.5 -1.2 -2.1 -0.9 -0.1 -1.0 -0.8 -0.5 8.9 9.6 9.4 9.4 9.4 9.6 9.8 9.4 9.2 8.9 8.3 7.3
6.3 4.6 4.9 3.9 4.5 6.9 8.6 9.1 9.4 9.3 9.2 9.2 9.0 8.9 9.1 9.0 6.4 4.7 4.2 8.1 2.0 4.0 2.2 3.8 3.0 2.7 0.0 4.1 3.8 3.6 9.4 9.7 9.3 9.4 9.4 9.6 9.8 9.6 9.5 9.6 9.5 9.6 9.5
5.4 5.7 5.7 3.2 0.6 1.6 3.1 5.6 5.7 1.2 2.3 9.2 8.8 8.5 8.2 8.9 2.0 -3.8 -4.0 3.2 4.7 2.1 2.4 4.7 3.0 3.8 6.0 6.4 7.6 9.3 9.6 9.2 9.3 9.4 9.5 9.5 9.6 9.6 9.5 9.6 9.6 9.6 8.9
5.1 6.4 5.5 3.6 4.7 4.5 2.2 -1.3 -6.0 -5.7 -6.3 -6.8 -6.4 -1.0 0.9 -4.8 -6.0 -6.6 -5.9 -5.9 -4.3 -1.2 5.2 5.0 4.3 4.4 3.5 4.4 6.9 7.6 8.4 7.5 7.6 9.2 9.6 9.6 9.5 9.4 8.6 8.8 9.4 7.2 8.8
4.7 5.2 4.8 4.6 6.0 5.1 0.8 0.5 -1.9 -4.7 -7.2 -7.2 -4.8 -5.6 -5.9 -6.6 -5.7 -6.2 -5.1 -3.5 -0.3 1.5 6.9 4.0 2.9 1.8 2.1 3.0 3.3 3.8 4.8 6.6 5.9 6.0 7.2 7.5 9.1 8.7 8.8 7.1 7.8 8.1 8.1
4.3 2.3 5.1 4.0 4.1 4.6 3.7 3.4 2.1 1.2 1.5 0.1 -4.7 -3.0 -6.1 -5.9 -4.7 -4.6 -3.9 -0.6 8.7 8.1 6.5 5.5 4.5 2.8 1.9 2.1 2.2 2.5 2.2 3.4 4.6 5.2 6.8 9.2 9.5 9.2 9.1 8.8 7.9 7.9 9.0
3.4 3.6 4.5 4.9 4.5 5.1 6.3 7.0 5.8 5.8 5.4 4.0 2.2 -1.7 -3.3 -5.0 -3.1 -2.4 -1.2 9.2 9.3 9.2 9.0 6.5 5.0 4.4 4.0 4.0 2.9 1.9 1.5 1.6 1.7 4.0 4.8 6.4 6.6 7.8 9.2 9.1 7.5 4.9 5.7
4.7 3.6 3.8 4.8 6.5 6.5 5.8 6.1 5.5 4.4 3.5 3.6 3.1 3.5 3.0 1.5 6.3 9.1 9.2 9.4 9.4 9.5 9.5 9.2 7.5 5.4 5.2 4.7 4.8 4.4 2.7 1.9 2.0 2.2 2.1 4.0 5.4 6.2 7.2 8.8 9.0 6.9 5.4
4.2 4.2 4.7 6.9 9.1 8.7 7.0 5.8 4.4 2.9 4.1 6.9 3.2 -1.9 -4.5 3.2 5.1 8.7 9.4 9.4 9.5 9.6 9.6 9.5 9.4 6.8 6.2 5.7 5.2 5.5 5.2 4.0 2.1 1.3 1.1 0.7 1.1 4.0 5.9 6.1 8.5 9.1 6.1
5.3 5.0 6.2 7.1 8.1 6.7 4.6 4.2 4.1 4.0 4.4 6.8 3.9 0.5 -4.8 3.2 3.4 3.7 4.5 5.1 6.9 8.2 8.1 8.0 8.4 8.9 6.1 4.7 5.0 4.9 4.8 4.9 2.9 1.5 0.3 -0.1 0.2 0.6 1.4 4.2 5.4 6.3 6.4
5.9 6.0 8.6 6.8 4.2 2.7 3.6 4.1 4.3 5.2 7.0 6.0 6.2 3.2 2.2 3.2 4.7 4.6 4.4 4.2 4.8 4.9 5.7 6.5 6.9 7.9 7.2 7.4 6.7 5.9 4.9 3.4 2.4 3.1 2.7 1.6 0.8 -0.2 0.3 1.0 2.4 5.5 5.8
5.2 4.9 3.9 3.2 4.4 4.7 5.4 7.3 6.1 7.4 6.1 6.7 4.3 4.0 3.0 3.7 6.4 5.7 5.6 5.8 6.2 7.7 7.2 6.9 7.0 7.2 7.3 7.0 7.7 5.7 4.7 3.3 2.9 2.9 1.9 2.5 2.9 3.0 0.9 0.7 1.6 2.3 5.5
7.6 7.9 6.6 5.0 5.8 6.5 6.6 7.9 7.1 5.4 4.9 4.4 4.1 2.8 3.3 5.5 7.1 7.5 6.7 8.2 8.7 8.5 9.1 8.1 8.0 7.7 8.5 6.7 8.1 7.0 1.3 -0.1 -0.0 -0.7 1.2 1.8 1.9 3.3 4.5 2.1 0.6 1.7 2.4
6.6 6.1 8.1 8.4 9.1 9.1 8.5 7.1 6.4 4.9 4.4 3.3 2.8 4.5 4.7 5.3 5.0 7.1 7.2 7.4 7.4 7.0 6.3 5.7 5.5 5.4 5.7 7.3 6.7 2.7 1.9 0.3 0.7 0.2 0.4 2.7 2.6 2.6 4.8 5.8 4.4 2.7 3.0
Wind_Speed
16 16 15 14 14 13 13 12 12 10 9 9 9 9 9 9 9 8 9 11 12 12 12 11 13 9 3 4 5 6 6 2 4 4 7 9 12 10 12 14 11 8 12
15 13 14 14 13 13 13 13 11 11 9 8 8 8 8 8 8 9 10 11 11 13 14 14 14 8 4 5 6 6 6 4 3 10 8 7 9 11 12 11 12 12 10
15 16 14 13 12 12 12 11 11 10 10 10 8 7 7 8 8 9 10 11 11 12 12 11 11 10 5 3 4 6 7 3 5 8 8 7 7 8 10 8 7 9 11
15 15 15 16 15 13 12 11 11 11 11 9 7 6 5 6 8 9 10 11 10 9 9 9 9 8 7 1 5 8 7 5 6 7 8 9 7 7 8 8 8 7 6
14 15 15 13 12 11 10 10 10 11 10 8 6 5 3 5 5 8 8 7 6 8 9 8 8 9 6 2 7 8 8 5 7 7 10 9 8 8 9 6 8 8 6
15 15 13 12 12 11 10 10 10 10 8 7 5 2 1 4 10 9 9 6 6 6 6 6 6 7 6 8 10 12 9 6 7 4 8 11 9 8 9 7 8 7 6
14 14 13 13 12 11 9 10 11 11 10 8 4 3 3 4 10 9 9 3 4 5 6 6 5 5 8 9 12 13 7 7 8 1 7 9 12 9 8 8 5 6 4
13 14 14 14 13 12 11 11 11 10 9 7 6 4 4 6 10 10 10 3 4 6 7 7 6 6 7 11 10 8 4 2 4 3 5 8 10 10 10 8 8 4 5
12 13 14 14 13 12 12 11 10 9 8 7 6 5 5 8 12 13 12 3 5 6 6 7 5 6 5 8 10 9 6 6 7 11 13 13 15 16 14 9 8 5 4
12 10 10 10 12 12 12 10 9 9 8 7 7 7 5 6 13 13 12 4 4 4 5 5 10 6 3 7 8 9 6 5 5 8 9 8 10 10 12 6 8 7 5
11 11 11 10 8 9 9 9 10 9 9 9 7 6 6 6 9 12 14 5 6 3 3 3 3 4 3 2 0 6 4 8 7 8 9 9 9 9 9 9 6 4 4
11 14 10 12 10 7 11 9 10 11 10 8 6 4 3 3 6 9 7 7 9 4 2 2 5 4 4 4 3 7 6 5 4 7 8 9 9 9 9 8 9 6 6
12 14 14 12 14 8 9 9 7 8 9 9 4 3 2 1 2 7 1 5 4 3 4 3 6 7 6 6 7 6 7 5 6 6 6 6 7 7 5 7 9 7 5
13 14 15 12 14 9 8 8 6 5 5 5 5 3 2 2 4 5 5 2 6 3 4 3 2 2 7 5 6 5 5 2 2 3 3 4 4 5 6 7 7 7 7
11 13 15 10 12 13 9 7 9 9 8 4 6 4 3 2 6 7 5 6 6 5 4 3 3 1 3 3 3 4 3 4 5 2 2 5 5 6 6 5 5 7 5
11 10 10 9 12 12 12 12 18 15 15 16 12 10 6 9 8 8 7 8 7 6 0 3 3 2 1 4 4 4 3 2 1 3 5 5 5 5 5 5 6 5 5
13 12 10 12 11 12 9 10 14 6 15 15 11 12 10 9 9 8 6 7 10 7 2 3 4 4 4 5 5 3 4 3 4 3 4 5 5 3 5 3 4 6 7
14 14 12 11 10 11 10 9 9 11 9 7 7 9 7 6 6 8 7 7 4 2 2 3 4 3 3 4 5 5 5 3 3 4 6 6 6 6 5 4 5 7 8
12 10 10 9 7 7 9 8 7 8 8 8 8 5 9 6 2 8 10 4 2 1 1 1 2 3 3 3 3 3 3 4 5 3 4 6 6 7 7 6 6 8 6
11 15 10 8 10 10 9 8 8 7 7 5 6 5 5 6 2 2 2 2 1 3 1 2 2 3 3 4 4 4 4 5 5 5 5 3 5 6 7 8 8 7 6
7 10 17 10 10 9 8 9 7 8 7 6 5 7 3 8 3 2 2 2 3 3 3 3 2 4 3 4 5 5 4 4 5 6 5 6 5 5 8 7 7 8 6
6 7 8 9 9 8 7 8 7 5 5 5 9 6 12 6 3 2 1 3 4 4 4 3 3 3 3 3 4 4 5 5 5 5 6 6 6 6 5 7 8 5 8
8 8 10 9 10 11 9 6 5 5 6 6 5 9 7 5 2 2 2 1 1 2 3 2 2 3 3 4 5 5 4 4 5 7 8 7 7 6 5 7 7 7 8
9 11 11 9 8 8 7 8 7 7 8 7 7 6 6 5 3 3 3 2 1 1 2 4 3 3 5 5 4 3 5 5 9 8 9 9 9 8 7 7 6 9 8
4 8 9 9 9 9 8 8 7 7 8 8 6 5 5 4 4 3 2 1 1 1 3 3 4 7 8 9 6 4 6 10 9 10 10 9 12 15 13 7 8 8 11
9 9 8 7 8 8 8 8 7 7 7 6 6 5 5 4 2 2 1 1 2 2 4 4 6 7 9 10 8 12 16 12 10 12 13 11 10 11 11 13 14 9 12
Wind_Direction
206 206 212 213 215 217 224 228 233 236 237 245 258 272 283 289 293 295 289 285 296 301 304 303 301 301 237 190 196 206 136 128 126 120 138 140 135 143 135 133 145 121 138
204 209 208 211 214 215 223 227 228 229 229 238 251 266 278 287 291 294 297 309 306 307 307 309 312 316 284 204 193 162 151 173 169 133 141 137 149 148 153 152 173 152 159
200 202 206 207 210 218 223 227 227 225 228 238 240 256 278 293 307 301 302 304 307 311 319 316 314 325 311 208 191 132 145 138 164 143 140 144 154 155 152 152 142 144 148
199 205 207 209 212 218 223 222 218 219 221 225 235 254 280 295 298 306 320 313 317 310 321 332 347 350 335 261 137 141 144 143 176 164 137 145 164 167 160 151 154 160 140
200 204 207 211 210 211 214 217 213 209 213 219 222 228 261 301 22 333 315 307 305 335 345 348 12 348 346 102 131 140 144 154 164 158 144 156 173 187 168 186 156 146 158
200 205 204 200 198 204 205 207 201 197 194 186 200 223 50 327 7 331 298 325 10 357 0 3 9 21 63 89 109 143 133 190 163 184 163 161 158 199 153 186 164 164 161
199 203 199 197 198 203 202 193 189 184 177 178 132 140 88 44 358 328 308 331 12 14 19 13 41 47 77 90 84 91 103 28 47 249 172 165 154 188 148 171 169 172 150
199 196 196 197 200 192 184 179 179 177 173 152 145 129 105 56 2 344 325 306 20 26 27 34 52 73 103 122 124 126 105 141 117 175 156 153 158 141 160 164 152 131 116
201 200 190 186 182 177 176 172 175 152 142 136 132 121 94 57 15 5 342 16 26 50 44 31 56 94 113 159 137 136 142 165 63 50 67 78 116 137 164 155 158 175 173
182 188 183 184 172 171 167 153 143 138 139 135 125 98 75 72 34 16 3 345 40 19 49 63 39 78 96 176 153 156 165 131 156 140 125 112 139 149 175 210 176 182 191
177 157 163 155 167 146 124 137 131 145 129 105 113 101 87 33 59 28 8 349 351 10 43 49 84 49 58 41 293 160 169 155 195 174 153 154 160 172 182 204 194 189 237
167 139 151 133 126 127 126 140 147 130 112 119 122 125 137 98 36 57 21 6 340 333 24 43 111 116 106 79 263 90 122 163 194 187 180 169 175 183 183 185 170 223 126
146 140 140 121 121 138 140 129 138 158 148 151 142 182 151 76 74 122 115 327 324 307 15 1 110 141 155 136 102 141 188 179 193 198 190 184 181 176 161 166 171 174 178
144 134 132 128 116 133 151 147 146 162 163 137 146 153 112 82 38 19 355 354 198 226 156 103 97 57 31 84 150 174 230 217 193 234 183 164 154 162 196 191 195 189 181
154 146 139 123 121 103 67 64 94 53 12 113 83 64 359 62 40 346 317 347 347 17 313 136 152 186 225 216 244 195 193 169 196 193 225 167 185 191 196 217 213 217 191
155 152 147 145 140 140 141 112 80 99 77 74 57 47 96 72 14 356 357 5 360 300 327 55 41 62 194 258 274 272 239 157 237 218 201 197 197 197 167 196 272 315 201
159 159 159 158 155 153 154 153 131 115 110 99 88 77 60 46 6 356 348 306 4 320 56 46 50 35 23 15 10 313 293 306 162 253 246 247 253 166 191 271 184 234 285
162 154 158 164 163 164 158 156 146 141 137 132 98 103 93 67 2 337 339 320 244 65 53 39 43 32 39 23 8 7 359 330 211 227 267 248 232 233 231 221 214 222 242
154 155 152 157 157 151 142 145 131 127 140 136 135 152 129 174 249 299 307 295 292 212 136 69 30 15 9 11 19 8 9 359 340 236 225 252 251 275 238 221 220 218 269
167 136 127 145 152 148 148 139 131 135 124 141 122 138 131 139 121 37 22 321 292 302 43 345 355 356 352 360 1 351 24 9 355 357 354 285 245 251 267 261 211 216 213
133 137 133 150 160 151 144 136 141 133 145 148 139 73 91 85 63 355 334 21 345 346 334 343 352 356 351 349 358 349 5 7 6 355 349 352 340 324 251 278 266 215 213
135 136 146 132 134 140 128 123 134 139 139 150 117 124 62 77 106 119 40 1 344 357 344 339 332 353 25 353 340 344 336 350 20 350 336 333 330 331 327 301 242 230 216
105 115 124 128 119 122 114 117 119 129 129 112 120 100 101 111 164 150 148 119 327 341 318 325 340 1 18 2 8 340 344 22 355 337 327 325 312 308 316 299 307 246 218
121 119 116 118 112 109 130 139 134 116 123 111 90 106 122 131 164 159 181 187 181 284 322 322 334 337 338 342 351 347 332 6 342 323 324 313 302 292 288 284 281 296 252
84 125 121 121 137 128 135 145 129 115 109 119 123 117 127 159 163 172 145 299 320 293 306 323 346 341 337 326 320 7 19 345 324 309 295 297 290 289 283 265 267 275 283
119 120 124 127 131 138 128 115 111 116 120 121 130 142 143 142 150 178 136 332 332 325 317 342 337 325 321 310 354 340 321 314 301 285 290 284 280 278 277 269 263 262 264